Time,TemperatureF,DewpointF,PressureIn,WindDirection,WindDirectionDegrees,WindSpeedMPH,WindSpeedGustMPH,Humidity,HourlyPrecipIn,Conditions,Clouds,dailyrainin,SoftwareType,DateUTC
2013-08-27 00:01:00,73.9,51.8,27.75,West,274,0.0,1.0,46,0.04,,---,0.05,VWS V14.01,2013-08-27 04:01:00,
2013-08-27 00:06:00,73.9,51.8,27.75,West,273,0.0,0.0,46,0.01,,---,0.00,VWS V14.01,2013-08-27 04:06:00,
2013-08-27 00:11:00,73.8,51.8,26.28,West,274,0.0,0.0,46,0.01,,---,0.00,VWS V14.01,2013-08-27 04:11:00,
2013-08-27 00:16:00,73.8,51.2,26.29,West,273,0.0,0.0,45,0.01,,---,0.00,VWS V14.01,2013-08-27 04:16:00,
2013-08-27 00:21:00,73.9,51.2,26.28,West,273,0.0,0.0,45,0.01,,---,0.00,VWS V14.01,2013-08-27 04:21:00,
2013-08-27 00:26:00,73.8,51.2,26.29,West,274,0.0,0.0,45,0.01,,---,0.00,VWS V14.01,2013-08-27 04:26:00,
2013-08-27 00:31:00,73.8,51.2,26.29,West,274,0.0,0.0,45,0.01,,---,0.00,VWS V14.01,2013-08-27 04:31:00,
2013-08-27 00:36:00,73.9,51.2,26.29,West,274,0.0,0.0,45,0.00,,---,0.00,VWS V14.01,2013-08-27 04:36:00,
2013-08-27 00:41:00,73.9,50.6,26.29,West,273,0.0,0.0,44,0.00,,---,0.00,VWS V14.01,2013-08-27 04:41:00,
2013-08-27 00:46:00,73.8,50.5,26.28,West,274,0.0,0.0,44,0.00,,---,0.00,VWS V14.01,2013-08-27 04:46:00,
2013-08-27 00:51:00,73.8,50.5,26.28,West,273,0.0,0.0,44,0.00,,---,0.00,VWS V14.01,2013-08-27 04:51:00,
2013-08-27 00:56:00,73.8,50.5,26.28,West,274,0.0,0.0,44,0.00,,---,0.00,VWS V14.01,2013-08-27 04:56:00,
2013-08-27 01:01:00,73.8,50.5,26.29,West,274,0.0,0.0,44,0.00,,---,0.00,VWS V14.01,2013-08-27 05:01:00,
2013-08-27 01:06:00,73.8,50.5,26.28,West,274,0.0,0.0,44,0.01,,---,0.01,VWS V14.01,2013-08-27 05:06:00,
2013-08-27 01:11:00,73.9,50.6,26.29,West,274,0.0,0.0,44,0.01,,---,0.01,VWS V14.01,2013-08-27 05:11:00,
2013-08-27 01:16:00,74.0,50.7,26.28,West,274,0.0,0.0,44,0.01,,---,0.01,VWS V14.01,2013-08-27 05:16:00,
2013-08-27 01:21:00,74.0,50.1,26.29,West,273,0.0,0.0,43,0.01,,---,0.01,VWS V14.01,2013-08-27 05:21:00,
2013-08-27 01:26:00,74.0,50.1,26.28,West,274,0.0,0.0,43,0.03,,---,0.03,VWS V14.01,2013-08-27 05:26:00,
2013-08-27 01:31:00,74.1,50.2,26.28,West,274,0.0,1.0,43,0.03,,---,0.03,VWS V14.01,2013-08-27 05:31:00,
2013-08-27 01:36:00,74.1,50.2,26.29,West,274,0.0,0.0,43,0.07,,---,0.07,VWS V14.01,2013-08-27 05:36:00,
2013-08-27 01:41:00,74.0,50.1,26.29,West,273,0.0,1.0,43,0.09,,---,0.09,VWS V14.01,2013-08-27 05:41:00,
2013-08-27 01:46:00,74.0,50.1,26.29,West,274,0.0,1.0,43,0.09,,---,0.09,VWS V14.01,2013-08-27 05:46:00,
2013-08-27 01:51:00,73.9,50.0,26.29,West,274,0.0,1.0,43,0.09,,---,0.09,VWS V14.01,2013-08-27 05:51:00,
2013-08-27 01:56:00,73.8,49.9,26.29,West,273,0.0,1.0,43,0.09,,---,0.09,VWS V14.01,2013-08-27 05:56:00,
2013-08-27 02:01:00,73.8,49.9,27.77,West,274,0.0,1.0,43,0.09,,---,0.09,VWS V14.01,2013-08-27 06:01:00,
2013-08-27 02:06:00,73.8,49.9,26.29,West,274,0.0,0.0,43,0.09,,---,0.09,VWS V14.01,2013-08-27 06:06:00,
2013-08-27 02:11:00,73.7,49.2,26.28,West,274,0.0,0.0,42,0.09,,---,0.09,VWS V14.01,2013-08-27 06:11:00,
2013-08-27 02:16:00,73.7,49.2,27.77,West,274,0.0,0.0,42,0.09,,---,0.09,VWS V14.01,2013-08-27 06:16:00,
2013-08-27 02:21:00,73.6,49.1,29.26,West,274,0.0,0.0,42,0.09,,---,0.09,VWS V14.01,2013-08-27 06:21:00,
2013-08-27 02:26:00,73.6,49.1,30.75,West,273,0.0,0.0,42,0.09,,---,0.09,VWS V14.01,2013-08-27 06:26:00,
2013-08-27 02:31:00,73.5,49.0,29.26,West,273,0.0,0.0,42,0.09,,---,0.09,VWS V14.01,2013-08-27 06:31:00,
2013-08-27 02:36:00,73.5,49.0,30.75,West,274,0.0,0.0,42,0.05,,---,0.09,VWS V14.01,2013-08-27 06:36:00,
2013-08-27 02:41:00,73.5,49.0,30.75,West,274,0.0,0.0,42,0.05,,---,0.09,VWS V14.01,2013-08-27 06:41:00,
2013-08-27 02:46:00,73.4,48.9,29.26,West,274,0.0,0.0,42,0.05,,---,0.09,VWS V14.01,2013-08-27 06:46:00,
2013-08-27 02:51:00,73.3,48.8,29.26,West,273,0.0,1.0,42,0.05,,---,0.09,VWS V14.01,2013-08-27 06:51:00,
2013-08-27 02:56:00,73.3,48.8,30.75,West,274,0.0,1.0,42,0.05,,---,0.09,VWS V14.01,2013-08-27 06:56:00,
2013-08-27 03:01:00,73.2,48.8,30.75,West,274,1.0,1.0,42,0.05,,---,0.09,VWS V14.01,2013-08-27 07:01:00,
2013-08-27 03:06:00,73.2,48.8,32.23,West,274,0.0,0.0,42,0.00,,---,0.09,VWS V14.01,2013-08-27 07:06:00,
2013-08-27 03:11:00,73.2,48.8,29.26,West,274,3.0,3.0,42,0.00,,---,0.09,VWS V14.01,2013-08-27 07:11:00,
2013-08-27 03:16:00,73.1,48.7,32.24,West,274,1.0,3.0,42,0.00,,---,0.09,VWS V14.01,2013-08-27 07:16:00,
2013-08-27 03:21:00,73.1,48.7,32.24,West,274,0.0,3.0,42,0.00,,---,0.09,VWS V14.01,2013-08-27 07:21:00,
2013-08-27 03:26:00,73.1,48.7,32.24,West,273,0.0,3.0,42,0.00,,---,0.09,VWS V14.01,2013-08-27 07:26:00,
2013-08-27 03:31:00,73.1,48.7,32.24,West,273,0.0,3.0,42,0.00,,---,0.09,VWS V14.01,2013-08-27 07:31:00,
2013-08-27 03:36:00,73.1,48.7,32.32,West,273,0.0,0.0,42,0.00,,---,0.09,VWS V14.01,2013-08-27 07:36:00,
2013-08-27 03:41:00,73.1,48.7,32.32,West,274,0.0,1.0,42,0.00,,---,0.09,VWS V14.01,2013-08-27 07:41:00,
2013-08-27 03:46:00,73.1,48.7,32.32,West,274,0.0,1.0,42,0.00,,---,0.09,VWS V14.01,2013-08-27 07:46:00,
2013-08-27 03:51:00,73.0,48.6,32.32,West,273,0.0,3.0,42,0.00,,---,0.09,VWS V14.01,2013-08-27 07:51:00,
2013-08-27 03:56:00,73.0,48.6,32.32,West,273,0.0,3.0,42,0.00,,---,0.09,VWS V14.01,2013-08-27 07:56:00,
2013-08-27 04:01:00,73.0,48.6,32.32,West,274,0.0,4.0,42,0.00,,---,0.09,VWS V14.01,2013-08-27 08:01:00,
2013-08-27 04:06:00,73.0,48.6,32.32,West,274,3.0,3.0,42,0.00,,---,0.09,VWS V14.01,2013-08-27 08:06:00,
2013-08-27 04:11:00,73.1,48.7,32.41,West,274,0.0,4.0,42,0.00,,---,0.09,VWS V14.01,2013-08-27 08:11:00,
2013-08-27 04:16:00,73.0,48.6,32.41,West,274,0.0,4.0,42,0.00,,---,0.09,VWS V14.01,2013-08-27 08:16:00,
2013-08-27 04:21:00,73.0,48.6,32.41,West,273,0.0,4.0,42,0.00,,---,0.09,VWS V14.01,2013-08-27 08:21:00,
2013-08-27 04:26:00,73.0,48.6,32.41,West,274,0.0,4.0,42,0.00,,---,0.09,VWS V14.01,2013-08-27 08:26:00,
2013-08-27 04:31:00,73.0,48.6,32.41,West,274,0.0,4.0,42,0.00,,---,0.09,VWS V14.01,2013-08-27 08:31:00,
2013-08-27 04:36:00,73.0,48.6,32.41,West,273,0.0,2.0,42,0.00,,---,0.09,VWS V14.01,2013-08-27 08:36:00,
2013-08-27 04:41:00,72.9,49.1,32.41,West,273,0.0,2.0,43,0.00,,---,0.09,VWS V14.01,2013-08-27 08:41:00,
2013-08-27 04:46:00,72.9,49.1,32.41,West,281,0.0,3.0,43,0.00,,---,0.09,VWS V14.01,2013-08-27 08:46:00,
2013-08-27 04:51:00,72.9,49.1,32.41,West,281,0.0,3.0,43,0.00,,---,0.09,VWS V14.01,2013-08-27 08:51:00,
2013-08-27 04:56:00,73.0,49.2,32.41,West,269,0.0,5.0,43,0.00,,---,0.09,VWS V14.01,2013-08-27 08:56:00,
2013-08-27 05:01:00,73.0,49.2,32.41,WSW,251,2.0,5.0,43,0.00,,---,0.09,VWS V14.01,2013-08-27 09:01:00,
2013-08-27 05:06:00,73.0,49.2,32.41,WSW,251,0.0,1.0,43,0.00,,---,0.09,VWS V14.01,2013-08-27 09:06:00,
2013-08-27 05:11:00,73.0,49.2,32.41,WSW,240,0.0,4.0,43,0.00,,---,0.09,VWS V14.01,2013-08-27 09:11:00,
2013-08-27 05:16:00,73.1,49.3,32.41,WSW,238,0.0,4.0,43,0.00,,---,0.09,VWS V14.01,2013-08-27 09:16:00,
2013-08-27 05:21:00,73.1,49.3,32.41,SW,234,1.0,4.0,43,0.00,,---,0.09,VWS V14.01,2013-08-27 09:21:00,
2013-08-27 05:26:00,73.1,49.3,32.41,SW,236,0.0,4.0,43,0.00,,---,0.09,VWS V14.01,2013-08-27 09:26:00,
2013-08-27 05:31:00,73.1,49.3,32.41,WSW,251,2.0,6.0,43,0.00,,---,0.09,VWS V14.01,2013-08-27 09:31:00,
2013-08-27 05:36:00,73.1,49.3,32.41,WSW,252,3.0,5.0,43,0.00,,---,0.09,VWS V14.01,2013-08-27 09:36:00,
2013-08-27 05:41:00,73.1,49.3,32.41,West,268,0.0,5.0,43,0.00,,---,0.09,VWS V14.01,2013-08-27 09:41:00,
2013-08-27 05:46:00,73.1,49.3,32.41,West,265,0.0,5.0,43,0.00,,---,0.09,VWS V14.01,2013-08-27 09:46:00,
2013-08-27 05:51:00,73.1,49.3,32.41,West,265,0.0,5.0,43,0.00,,---,0.09,VWS V14.01,2013-08-27 09:51:00,
2013-08-27 05:56:00,73.1,49.3,32.41,West,265,0.0,5.0,43,0.00,,---,0.09,VWS V14.01,2013-08-27 09:56:00,
2013-08-27 06:01:00,73.1,49.3,32.41,West,266,0.0,5.0,43,0.00,,---,0.09,VWS V14.01,2013-08-27 10:01:00,
2013-08-27 06:06:00,73.1,49.3,32.41,West,268,3.0,3.0,43,0.00,,---,0.09,VWS V14.01,2013-08-27 10:06:00,
2013-08-27 06:11:00,73.1,49.9,32.41,West,269,0.0,6.0,44,0.00,,---,0.09,VWS V14.01,2013-08-27 10:11:00,
2013-08-27 06:16:00,73.1,49.9,32.41,West,277,0.0,10.0,44,0.00,,---,0.09,VWS V14.01,2013-08-27 10:16:00,
2013-08-27 06:21:00,73.2,50.0,32.41,West,279,0.0,10.0,44,0.00,,---,0.09,VWS V14.01,2013-08-27 10:21:00,
2013-08-27 06:26:00,73.2,50.0,32.41,West,273,0.0,10.0,44,0.00,,---,0.09,VWS V14.01,2013-08-27 10:26:00,
2013-08-27 06:31:00,73.3,50.1,32.41,West,275,0.0,10.0,44,0.00,,---,0.09,VWS V14.01,2013-08-27 10:31:00,
2013-08-27 06:36:00,73.2,50.0,32.41,West,269,0.0,6.0,44,0.00,,---,0.09,VWS V14.01,2013-08-27 10:36:00,
2013-08-27 06:41:00,73.3,50.1,32.41,West,269,0.0,6.0,44,0.00,,---,0.09,VWS V14.01,2013-08-27 10:41:00,
2013-08-27 06:46:00,73.3,50.1,32.41,West,268,0.0,6.0,44,0.00,,---,0.09,VWS V14.01,2013-08-27 10:46:00,
2013-08-27 06:51:00,73.2,50.0,32.41,West,265,0.0,6.0,44,0.00,,---,0.09,VWS V14.01,2013-08-27 10:51:00,
2013-08-27 06:56:00,73.2,50.0,32.41,West,261,0.0,8.0,44,0.00,,---,0.09,VWS V14.01,2013-08-27 10:56:00,
2013-08-27 07:00:00,73.2,50.0,32.41,West,261,0.0,8.0,44,0.00,,---,0.09,VWS V14.01,2013-08-27 11:00:00,
2013-08-27 07:05:00,73.2,50.0,32.41,West,261,0.0,1.0,44,0.00,,---,0.09,VWS V14.01,2013-08-27 11:05:00,
2013-08-27 07:10:00,73.2,50.0,32.41,West,261,0.0,2.0,44,0.00,,---,0.09,VWS V14.01,2013-08-27 11:10:00,
2013-08-27 07:15:00,73.1,49.9,32.41,West,261,0.0,4.0,44,0.00,,---,0.09,VWS V14.01,2013-08-27 11:15:00,
2013-08-27 07:20:00,73.0,49.8,32.41,West,263,1.0,4.0,44,0.00,,---,0.09,VWS V14.01,2013-08-27 11:20:00,
2013-08-27 07:25:00,73.0,50.4,32.41,West,271,0.0,9.0,45,0.00,,---,0.09,VWS V14.01,2013-08-27 11:25:00,
2013-08-27 07:30:00,73.0,50.4,32.41,West,263,0.0,9.0,45,0.00,,---,0.09,VWS V14.01,2013-08-27 11:30:00,
2013-08-27 07:35:00,73.0,50.4,32.41,West,262,0.0,2.0,45,0.00,,---,0.09,VWS V14.01,2013-08-27 11:35:00,
2013-08-27 07:40:00,73.0,50.4,32.41,West,261,0.0,2.0,45,0.00,,---,0.09,VWS V14.01,2013-08-27 11:40:00,
2013-08-27 07:45:00,73.1,49.9,32.41,West,261,3.0,3.0,44,0.00,,---,0.09,VWS V14.01,2013-08-27 11:45:00,
2013-08-27 07:50:00,73.2,50.0,32.41,WSW,253,0.0,5.0,44,0.00,,---,0.09,VWS V14.01,2013-08-27 11:50:00,
2013-08-27 07:55:00,73.3,50.7,32.41,WSW,254,0.0,5.0,45,0.00,,---,0.09,VWS V14.01,2013-08-27 11:55:00,
2013-08-27 08:00:00,73.4,50.8,32.41,WSW,254,0.0,5.0,45,0.00,,---,0.09,VWS V14.01,2013-08-27 12:00:00,
2013-08-27 08:05:00,73.4,50.8,29.26,WSW,257,0.0,5.0,45,0.00,,---,0.09,VWS V14.01,2013-08-27 12:05:00,
2013-08-27 08:10:00,73.4,50.8,29.26,WSW,258,0.0,5.0,45,0.00,,---,0.09,VWS V14.01,2013-08-27 12:10:00,
2013-08-27 08:15:00,73.5,50.9,29.26,West,260,0.0,5.0,45,0.00,,---,0.09,VWS V14.01,2013-08-27 12:15:00,
2013-08-27 08:20:00,73.6,51.0,29.26,West,260,0.0,5.0,45,0.00,,---,0.09,VWS V14.01,2013-08-27 12:20:00,
2013-08-27 08:25:00,73.6,51.0,29.26,West,260,0.0,5.0,45,0.00,,---,0.09,VWS V14.01,2013-08-27 12:25:00,
2013-08-27 08:30:00,73.7,51.1,29.26,West,271,0.0,5.0,45,0.00,,---,0.09,VWS V14.01,2013-08-27 12:30:00,
2013-08-27 08:35:00,73.7,51.7,29.26,West,263,0.0,1.0,46,0.00,,---,0.09,VWS V14.01,2013-08-27 12:35:00,
2013-08-27 08:40:00,73.7,51.7,29.26,West,271,0.0,3.0,46,0.00,,---,0.09,VWS V14.01,2013-08-27 12:40:00,
2013-08-27 08:45:00,73.7,51.7,29.26,West,272,0.0,3.0,46,0.00,,---,0.09,VWS V14.01,2013-08-27 12:45:00,
2013-08-27 08:50:00,73.7,51.7,29.26,West,271,0.0,3.0,46,0.00,,---,0.09,VWS V14.01,2013-08-27 12:50:00,
2013-08-27 08:55:00,73.7,52.2,29.26,West,271,0.0,3.0,47,0.00,,---,0.09,VWS V14.01,2013-08-27 12:55:00,
2013-08-27 09:00:00,73.7,52.2,29.26,West,263,0.0,5.0,47,0.00,,---,0.09,VWS V14.01,2013-08-27 13:00:00,
2013-08-27 09:05:00,73.8,52.3,29.26,West,273,0.0,3.0,47,0.00,,---,0.09,VWS V14.01,2013-08-27 13:05:00,
2013-08-27 09:10:00,73.8,52.9,29.26,West,273,0.0,3.0,48,0.00,,---,0.09,VWS V14.01,2013-08-27 13:10:00,
2013-08-27 09:15:00,73.9,53.0,29.26,WSW,254,0.0,8.0,48,0.00,,---,0.09,VWS V14.01,2013-08-27 13:15:00,
2013-08-27 09:20:00,74.1,53.2,29.26,WSW,255,0.0,9.0,48,0.00,,---,0.09,VWS V14.01,2013-08-27 13:20:00,
2013-08-27 09:25:00,74.4,54.0,29.26,West,268,0.0,9.0,49,0.00,,---,0.09,VWS V14.01,2013-08-27 13:25:00,
2013-08-27 09:30:00,74.5,54.7,29.26,West,261,0.0,9.0,50,0.00,,---,0.09,VWS V14.01,2013-08-27 13:30:00,
2013-08-27 09:35:00,74.7,55.4,29.26,WSW,255,0.0,9.0,51,0.00,,---,0.09,VWS V14.01,2013-08-27 13:35:00,
2013-08-27 09:40:00,74.9,56.1,29.26,North,5,2.0,9.0,52,0.00,,---,0.09,VWS V14.01,2013-08-27 13:40:00,
2013-08-27 09:45:00,75.2,56.9,29.26,NNE,14,0.0,9.0,53,0.00,,---,0.09,VWS V14.01,2013-08-27 13:45:00,
2013-08-27 09:50:00,75.5,58.7,29.26,NNW,329,0.0,9.0,56,0.00,,---,0.09,VWS V14.01,2013-08-27 13:50:00,
2013-08-27 09:55:00,75.9,59.6,29.26,NE,36,0.0,9.0,57,0.00,,---,0.09,VWS V14.01,2013-08-27 13:55:00,
2013-08-27 10:00:00,76.6,60.2,29.26,NE,36,0.0,9.0,57,0.00,,---,0.09,VWS V14.01,2013-08-27 14:00:00,
2013-08-27 10:05:00,77.2,62.7,29.26,NNE,19,1.0,7.0,61,0.00,,---,0.09,VWS V14.01,2013-08-27 14:05:00,
2013-08-27 10:10:00,77.3,63.7,32.00,North,9,2.0,7.0,63,0.00,,---,0.09,VWS V14.01,2013-08-27 14:10:00,
2013-08-27 10:15:00,77.3,63.7,28.58,North,5,0.0,7.0,63,0.00,,---,0.09,VWS V14.01,2013-08-27 14:15:00,
2013-08-27 10:20:00,77.4,63.8,28.58,NNE,14,2.0,7.0,63,0.00,,---,0.09,VWS V14.01,2013-08-27 14:20:00,
2013-08-27 10:25:00,77.8,63.8,28.58,NNE,30,0.0,7.0,62,0.00,,---,0.09,VWS V14.01,2013-08-27 14:25:00,
2013-08-27 10:30:00,78.7,65.5,28.58,NNE,33,0.0,7.0,64,0.00,,---,0.09,VWS V14.01,2013-08-27 14:30:00,
2013-08-27 10:35:00,79.7,67.3,32.01,NNE,22,4.0,6.0,66,0.00,,---,0.09,VWS V14.01,2013-08-27 14:35:00,
2013-08-27 10:40:00,80.2,68.3,32.01,NE,40,1.0,6.0,67,0.00,,---,0.09,VWS V14.01,2013-08-27 14:40:00,
2013-08-27 10:45:00,80.9,69.4,28.55,NE,36,0.0,8.0,68,0.00,,---,0.09,VWS V14.01,2013-08-27 14:45:00,
2013-08-27 10:50:00,81.4,69.8,26.83,NNE,19,4.0,9.0,68,0.00,,---,0.09,VWS V14.01,2013-08-27 14:50:00,
2013-08-27 10:55:00,82.1,70.9,28.57,NNE,13,2.0,9.0,69,0.00,,---,0.09,VWS V14.01,2013-08-27 14:55:00,
2013-08-27 11:00:00,82.3,71.5,26.85,North,11,6.0,9.0,70,0.00,,---,0.09,VWS V14.01,2013-08-27 15:00:00,
2013-08-27 11:05:00,81.7,71.0,26.85,North,355,0.0,9.0,70,0.00,,---,0.09,VWS V14.01,2013-08-27 15:05:00,
2013-08-27 11:10:00,81.7,70.6,26.85,NNE,33,2.0,9.0,69,0.00,,---,0.09,VWS V14.01,2013-08-27 15:10:00,
2013-08-27 11:15:00,82.2,71.4,26.85,NNE,21,0.0,9.0,70,0.00,,---,0.09,VWS V14.01,2013-08-27 15:15:00,
2013-08-27 11:20:00,82.2,71.0,26.85,ENE,71,3.0,9.0,69,0.00,,---,0.09,VWS V14.01,2013-08-27 15:20:00,
2013-08-27 11:25:00,82.2,71.0,26.85,East,84,2.0,9.0,69,0.00,,---,0.09,VWS V14.01,2013-08-27 15:25:00,
2013-08-27 11:30:00,82.2,71.4,26.85,NE,35,5.0,9.0,70,0.00,,---,0.09,VWS V14.01,2013-08-27 15:30:00,
2013-08-27 11:35:00,82.3,71.1,26.85,NNE,19,0.0,6.0,69,0.00,,---,0.09,VWS V14.01,2013-08-27 15:35:00,
2013-08-27 11:40:00,82.9,71.7,26.85,NW,325,0.0,6.0,69,0.00,,---,0.09,VWS V14.01,2013-08-27 15:40:00,
2013-08-27 11:45:00,83.6,72.8,26.85,NNE,18,9.0,12.0,70,0.00,,---,0.09,VWS V14.01,2013-08-27 15:45:00,
2013-08-27 11:50:00,83.9,73.1,26.85,NE,43,5.0,12.0,70,0.00,,---,0.09,VWS V14.01,2013-08-27 15:50:00,
2013-08-27 11:55:00,83.7,72.9,26.85,North,355,2.0,12.0,70,0.00,,---,0.09,VWS V14.01,2013-08-27 15:55:00,
2013-08-27 12:00:00,83.6,72.8,26.85,NNE,28,2.0,12.0,70,0.00,,---,0.09,VWS V14.01,2013-08-27 16:00:00,
2013-08-27 12:05:00,83.8,73.0,26.85,West,271,0.0,5.0,70,0.00,,---,0.09,VWS V14.01,2013-08-27 16:05:00,
2013-08-27 12:10:00,83.7,72.9,26.85,NNE,13,0.0,5.0,70,0.00,,---,0.09,VWS V14.01,2013-08-27 16:10:00,
2013-08-27 12:15:00,83.6,72.8,26.85,NNW,336,0.0,8.0,70,0.00,,---,0.09,VWS V14.01,2013-08-27 16:15:00,
2013-08-27 12:20:00,83.9,73.1,31.86,West,279,3.0,8.0,70,0.00,,---,0.09,VWS V14.01,2013-08-27 16:20:00,
2013-08-27 12:25:00,84.2,73.4,31.86,NW,309,2.0,9.0,70,0.00,,---,0.09,VWS V14.01,2013-08-27 16:25:00,
2013-08-27 12:30:00,84.5,73.2,31.86,WNW,300,0.0,11.0,69,0.00,,---,0.09,VWS V14.01,2013-08-27 16:30:00,
2013-08-27 12:35:00,84.8,73.5,31.86,SSW,200,1.0,6.0,69,0.00,,---,0.09,VWS V14.01,2013-08-27 16:35:00,
2013-08-27 12:40:00,84.8,73.5,31.86,NE,44,0.0,6.0,69,0.00,,---,0.09,VWS V14.01,2013-08-27 16:40:00,
2013-08-27 12:45:00,84.8,73.5,31.86,North,360,0.0,10.0,69,0.00,,---,0.09,VWS V14.01,2013-08-27 16:45:00,
2013-08-27 12:50:00,84.8,73.5,31.86,NE,36,1.0,10.0,69,0.00,,---,0.09,VWS V14.01,2013-08-27 16:50:00,
2013-08-27 12:55:00,84.9,73.6,31.86,WSW,246,7.0,12.0,69,0.00,,---,0.09,VWS V14.01,2013-08-27 16:55:00,
2013-08-27 13:00:00,85.4,74.1,31.86,North,351,0.0,12.0,69,0.00,,---,0.09,VWS V14.01,2013-08-27 17:00:00,
2013-08-27 13:05:00,86.1,74.8,31.86,NE,34,1.0,3.0,69,0.00,,---,0.09,VWS V14.01,2013-08-27 17:05:00,
2013-08-27 13:10:00,86.8,75.0,31.86,NE,38,1.0,6.0,68,0.00,,---,0.09,VWS V14.01,2013-08-27 17:10:00,
2013-08-27 13:15:00,87.0,75.2,30.29,WNW,294,0.0,6.0,68,0.00,,---,0.09,VWS V14.01,2013-08-27 17:15:00,
2013-08-27 13:20:00,87.0,74.7,30.29,WSW,244,2.0,10.0,67,0.00,,---,0.09,VWS V14.01,2013-08-27 17:20:00,
2013-08-27 13:25:00,87.3,75.4,25.11,North,355,5.0,10.0,68,0.00,,---,0.09,VWS V14.01,2013-08-27 17:25:00,
2013-08-27 13:30:00,87.1,74.8,30.32,NNE,25,0.0,13.0,67,0.00,,---,0.09,VWS V14.01,2013-08-27 17:30:00,
2013-08-27 13:35:00,87.1,74.8,30.32,NE,44,0.0,5.0,67,0.00,,---,0.09,VWS V14.01,2013-08-27 17:35:00,
2013-08-27 13:40:00,87.5,75.2,30.32,NE,38,4.0,10.0,67,0.00,,---,0.09,VWS V14.01,2013-08-27 17:40:00,
2013-08-27 13:45:00,87.9,75.1,30.32,NNW,331,0.0,10.0,66,0.00,,---,0.09,VWS V14.01,2013-08-27 17:45:00,
2013-08-27 13:50:00,88.3,75.5,30.32,WSW,253,1.0,10.0,66,0.00,,---,0.09,VWS V14.01,2013-08-27 17:50:00,
2013-08-27 13:55:00,88.5,75.2,30.32,NE,39,0.0,10.0,65,0.00,,---,0.09,VWS V14.01,2013-08-27 17:55:00,
2013-08-27 14:00:00,88.6,75.3,28.58,NNE,21,0.0,12.0,65,0.00,,---,0.09,VWS V14.01,2013-08-27 18:00:00,
2013-08-27 14:05:00,88.5,75.7,28.58,North,5,0.0,6.0,66,0.00,,---,0.09,VWS V14.01,2013-08-27 18:05:00,
2013-08-27 14:10:00,88.7,75.4,28.58,NW,310,0.0,6.0,65,0.00,,---,0.09,VWS V14.01,2013-08-27 18:10:00,
2013-08-27 14:15:00,88.7,75.0,30.26,West,260,5.0,7.0,64,0.00,,---,0.09,VWS V14.01,2013-08-27 18:15:00,
2013-08-27 14:20:00,88.8,75.5,30.26,WNW,297,0.0,7.0,65,0.00,,---,0.09,VWS V14.01,2013-08-27 18:20:00,
2013-08-27 14:25:00,89.2,75.9,30.26,NNE,12,0.0,7.0,65,0.00,,---,0.09,VWS V14.01,2013-08-27 18:25:00,
2013-08-27 14:30:00,89.5,75.7,30.26,NW,306,0.0,4.0,64,0.00,,---,0.09,VWS V14.01,2013-08-27 18:30:00,
2013-08-27 14:35:00,89.5,75.7,30.26,NNE,30,0.0,3.0,64,0.00,,---,0.09,VWS V14.01,2013-08-27 18:35:00,
2013-08-27 14:41:00,89.9,75.6,30.26,North,9,1.0,1.0,63,0.00,,---,0.09,VWS V14.01,2013-08-27 18:41:00,
2013-08-27 14:46:00,90.0,74.8,32.01,NE,46,1.0,9.0,61,0.00,,---,0.09,VWS V14.01,2013-08-27 18:46:00,
2013-08-27 14:51:00,90.0,75.2,32.01,North,5,0.0,9.0,62,0.00,,---,0.09,VWS V14.01,2013-08-27 18:51:00,
2013-08-27 14:56:00,89.6,74.4,32.02,NNE,25,2.0,9.0,61,0.00,,---,0.09,VWS V14.01,2013-08-27 18:56:00,
2013-08-27 15:01:00,89.2,74.5,32.02,NE,45,0.0,9.0,62,0.00,,---,0.09,VWS V14.01,2013-08-27 19:01:00,
2013-08-27 15:06:00,89.8,75.5,32.02,NNE,15,1.0,4.0,63,0.00,,---,0.09,VWS V14.01,2013-08-27 19:06:00,
2013-08-27 15:11:00,90.0,74.3,32.02,NNE,28,2.0,9.0,60,0.00,,---,0.09,VWS V14.01,2013-08-27 19:11:00,
2013-08-27 15:16:00,89.7,74.0,32.02,NNE,28,0.0,9.0,60,0.00,,---,0.09,VWS V14.01,2013-08-27 19:16:00,
2013-08-27 15:21:00,89.4,73.7,32.02,NNW,346,1.0,9.0,60,0.00,,---,0.09,VWS V14.01,2013-08-27 19:21:00,
2013-08-27 15:26:00,89.5,74.3,32.02,NE,40,0.0,9.0,61,0.00,,---,0.09,VWS V14.01,2013-08-27 19:26:00,
2013-08-27 15:31:00,88.9,73.2,32.02,NNE,24,6.0,11.0,60,0.00,,---,0.09,VWS V14.01,2013-08-27 19:31:00,
2013-08-27 15:36:00,88.4,73.7,32.02,NNE,17,5.0,7.0,62,0.00,,---,0.09,VWS V14.01,2013-08-27 19:36:00,
2013-08-27 15:41:00,88.6,73.9,32.02,NNE,32,1.0,7.0,62,0.00,,---,0.09,VWS V14.01,2013-08-27 19:41:00,
2013-08-27 15:46:00,88.8,73.6,32.02,NE,34,1.0,7.0,61,0.00,,---,0.09,VWS V14.01,2013-08-27 19:46:00,
2013-08-27 15:51:00,89.2,73.0,32.02,North,360,0.0,7.0,59,0.00,,---,0.09,VWS V14.01,2013-08-27 19:51:00,
2013-08-27 15:56:00,89.3,73.6,32.02,NNE,29,2.0,9.0,60,0.00,,---,0.09,VWS V14.01,2013-08-27 19:56:00,
2013-08-27 16:01:00,89.2,73.5,32.02,NE,46,0.0,9.0,60,0.00,,---,0.09,VWS V14.01,2013-08-27 20:01:00,
2013-08-27 16:06:00,88.7,73.5,32.02,NE,36,1.0,6.0,61,0.00,,---,0.09,VWS V14.01,2013-08-27 20:06:00,
2013-08-27 16:11:00,88.6,73.4,32.02,North,9,1.0,9.0,61,0.00,,---,0.09,VWS V14.01,2013-08-27 20:11:00,
2013-08-27 16:16:00,89.0,72.8,32.02,NE,51,1.0,9.0,59,0.00,,---,0.09,VWS V14.01,2013-08-27 20:16:00,
2013-08-27 16:21:00,89.2,73.0,32.02,NE,34,1.0,9.0,59,0.00,,---,0.09,VWS V14.01,2013-08-27 20:21:00,
2013-08-27 16:26:00,89.1,72.4,32.02,NNE,23,0.0,9.0,58,0.00,,---,0.09,VWS V14.01,2013-08-27 20:26:00,
2013-08-27 16:31:00,89.1,72.4,32.02,NNE,15,0.0,9.0,58,0.00,,---,0.09,VWS V14.01,2013-08-27 20:31:00,
2013-08-27 16:36:00,89.1,72.4,32.02,NNE,26,1.0,5.0,58,0.00,,---,0.09,VWS V14.01,2013-08-27 20:36:00,
2013-08-27 16:41:00,89.2,73.0,32.02,WSW,242,1.0,5.0,59,0.00,,---,0.09,VWS V14.01,2013-08-27 20:41:00,
2013-08-27 16:46:00,89.7,73.0,32.02,WNW,299,0.0,5.0,58,0.00,,---,0.09,VWS V14.01,2013-08-27 20:46:00,
2013-08-27 16:51:00,90.3,73.5,32.02,NE,41,0.0,5.0,58,0.00,,---,0.09,VWS V14.01,2013-08-27 20:51:00,
2013-08-27 16:56:00,90.4,73.6,32.02,NE,44,0.0,5.0,58,0.00,,---,0.09,VWS V14.01,2013-08-27 20:56:00,
2013-08-27 17:01:00,90.4,73.6,32.02,WSW,253,0.0,5.0,58,0.00,,---,0.09,VWS V14.01,2013-08-27 21:01:00,
2013-08-27 17:06:00,90.4,74.1,32.02,West,273,0.0,2.0,59,0.00,,---,0.09,VWS V14.01,2013-08-27 21:06:00,
2013-08-27 17:11:00,90.1,73.8,32.02,NNE,15,0.0,10.0,59,0.00,,---,0.09,VWS V14.01,2013-08-27 21:11:00,
2013-08-27 17:16:00,90.1,73.8,32.02,NW,305,1.0,10.0,59,0.00,,---,0.09,VWS V14.01,2013-08-27 21:16:00,
2013-08-27 17:21:00,89.9,73.7,32.02,WSW,250,1.0,10.0,59,0.00,,---,0.09,VWS V14.01,2013-08-27 21:21:00,
2013-08-27 17:26:00,89.8,74.1,32.02,West,274,0.0,10.0,60,0.00,,---,0.09,VWS V14.01,2013-08-27 21:26:00,
2013-08-27 17:31:00,89.7,74.0,32.02,West,272,0.0,10.0,60,0.00,,---,0.09,VWS V14.01,2013-08-27 21:31:00,
2013-08-27 17:36:00,89.6,73.9,32.02,North,5,4.0,7.0,60,0.00,,---,0.09,VWS V14.01,2013-08-27 21:36:00,
2013-08-27 17:41:00,89.0,73.3,32.02,NNE,30,2.0,7.0,60,0.00,,---,0.09,VWS V14.01,2013-08-27 21:41:00,
2013-08-27 17:46:00,88.6,73.4,32.02,NNE,13,0.0,7.0,61,0.00,,---,0.09,VWS V14.01,2013-08-27 21:46:00,
2013-08-27 17:51:00,88.3,72.7,32.05,NE,36,1.0,7.0,60,0.00,,---,0.09,VWS V14.01,2013-08-27 21:51:00,
2013-08-27 17:56:00,87.8,72.2,30.32,NNE,12,0.0,7.0,60,0.00,,---,0.09,VWS V14.01,2013-08-27 21:56:00,
2013-08-27 18:01:00,87.3,72.2,30.32,NNE,22,1.0,7.0,61,0.00,,---,0.09,VWS V14.01,2013-08-27 22:01:00,
2013-08-27 18:06:00,87.1,72.5,32.05,NNE,32,0.0,3.0,62,0.00,,---,0.09,VWS V14.01,2013-08-27 22:06:00,
2013-08-27 18:11:00,86.9,72.8,32.05,NE,36,0.0,3.0,63,0.00,,---,0.09,VWS V14.01,2013-08-27 22:11:00,
2013-08-27 18:16:00,86.8,73.2,32.05,NE,37,0.0,3.0,64,0.00,,---,0.09,VWS V14.01,2013-08-27 22:16:00,
2013-08-27 18:21:00,86.5,73.3,32.05,NE,34,0.0,3.0,65,0.00,,---,0.09,VWS V14.01,2013-08-27 22:21:00,
2013-08-27 18:26:00,86.3,73.2,28.58,NE,36,0.0,3.0,65,0.00,,---,0.09,VWS V14.01,2013-08-27 22:26:00,
2013-08-27 18:31:00,86.2,73.5,32.05,NE,36,0.0,3.0,66,0.00,,---,0.09,VWS V14.01,2013-08-27 22:31:00,
2013-08-27 18:36:00,85.9,72.8,32.05,NE,36,0.0,3.0,65,0.00,,---,0.09,VWS V14.01,2013-08-27 22:36:00,
2013-08-27 18:41:00,85.7,73.0,32.05,NE,36,0.0,3.0,66,0.00,,---,0.09,VWS V14.01,2013-08-27 22:41:00,
2013-08-27 18:46:00,85.5,72.4,25.11,NE,36,0.0,3.0,65,0.00,,---,0.09,VWS V14.01,2013-08-27 22:46:00,
2013-08-27 18:51:00,85.3,72.7,25.11,NE,36,0.0,3.0,66,0.00,,---,0.09,VWS V14.01,2013-08-27 22:51:00,
2013-08-27 18:56:00,85.2,72.6,26.82,NE,36,0.0,3.0,66,0.00,,---,0.09,VWS V14.01,2013-08-27 22:56:00,
2013-08-27 19:01:00,85.0,72.4,25.11,NE,36,1.0,3.0,66,0.00,,---,0.09,VWS V14.01,2013-08-27 23:01:00,
2013-08-27 19:06:00,84.8,72.6,25.11,NE,36,0.0,0.0,67,0.00,,---,0.09,VWS V14.01,2013-08-27 23:06:00,
2013-08-27 19:11:00,84.6,72.4,25.11,NE,35,0.0,0.0,67,0.00,,---,0.09,VWS V14.01,2013-08-27 23:11:00,
2013-08-27 19:16:00,84.5,72.3,26.85,NE,36,0.0,0.0,67,0.00,,---,0.09,VWS V14.01,2013-08-27 23:16:00,
2013-08-27 19:21:00,84.2,72.1,26.85,NE,36,0.0,0.0,67,0.00,,---,0.09,VWS V14.01,2013-08-27 23:21:00,
2013-08-27 19:26:00,83.9,72.2,26.85,NE,35,0.0,1.0,68,0.00,,---,0.09,VWS V14.01,2013-08-27 23:26:00,
2013-08-27 19:31:00,83.6,71.9,26.85,NE,36,0.0,1.0,68,0.00,,---,0.09,VWS V14.01,2013-08-27 23:31:00,
2013-08-27 19:36:00,83.4,71.7,26.85,NE,35,0.0,0.0,68,0.00,,---,0.09,VWS V14.01,2013-08-27 23:36:00,
2013-08-27 19:41:00,83.3,71.6,26.85,NE,36,0.0,0.0,68,0.00,,---,0.09,VWS V14.01,2013-08-27 23:41:00,
2013-08-27 19:46:00,83.0,71.8,31.83,NE,34,0.0,0.0,69,0.00,,---,0.09,VWS V14.01,2013-08-27 23:46:00,
2013-08-27 19:51:00,82.8,71.6,31.83,NE,36,0.0,0.0,69,0.00,,---,0.09,VWS V14.01,2013-08-27 23:51:00,
2013-08-27 19:56:00,82.5,71.3,31.75,NE,36,0.0,0.0,69,0.00,,---,0.09,VWS V14.01,2013-08-27 23:56:00,
2013-08-27 20:01:00,81.9,71.2,31.75,NE,36,0.0,0.0,70,0.00,,---,0.09,VWS V14.01,2013-08-28 00:01:00,
2013-08-27 20:06:00,81.7,71.0,31.75,NE,36,0.0,0.0,70,0.00,,---,0.09,VWS V14.01,2013-08-28 00:06:00,
2013-08-27 20:11:00,81.4,70.7,31.75,NE,36,0.0,0.0,70,0.00,,---,0.09,VWS V14.01,2013-08-28 00:11:00,
2013-08-27 20:16:00,81.2,70.5,31.75,NE,36,0.0,0.0,70,0.00,,---,0.09,VWS V14.01,2013-08-28 00:16:00,
2013-08-27 20:21:00,81.0,70.7,31.75,NE,36,0.0,0.0,71,0.00,,---,0.09,VWS V14.01,2013-08-28 00:21:00,
2013-08-27 20:26:00,80.5,70.2,31.75,NE,36,0.0,0.0,71,0.00,,---,0.09,VWS V14.01,2013-08-28 00:26:00,
2013-08-27 20:31:00,80.1,69.9,31.75,NE,36,0.0,0.0,71,0.00,,---,0.09,VWS V14.01,2013-08-28 00:31:00,
2013-08-27 20:36:00,79.9,69.7,31.75,NE,36,0.0,0.0,71,0.00,,---,0.09,VWS V14.01,2013-08-28 00:36:00,
2013-08-27 20:41:00,79.8,69.6,31.75,NE,35,0.0,0.0,71,0.00,,---,0.09,VWS V14.01,2013-08-28 00:41:00,
2013-08-27 20:45:00,79.8,69.6,31.75,NE,36,0.0,0.0,71,0.00,,---,0.09,VWS V14.01,2013-08-28 00:45:00,
2013-08-27 20:50:00,79.8,69.6,31.75,NE,36,0.0,0.0,71,0.00,,---,0.09,VWS V14.01,2013-08-28 00:50:00,
2013-08-27 20:55:00,79.7,69.5,31.75,NE,36,0.0,0.0,71,0.00,,---,0.09,VWS V14.01,2013-08-28 00:55:00,
2013-08-27 21:00:00,79.6,69.0,31.75,NE,34,0.0,0.0,70,0.00,,---,0.09,VWS V14.01,2013-08-28 01:00:00,
2013-08-27 21:05:00,79.4,68.8,31.75,NE,36,0.0,0.0,70,0.00,,---,0.09,VWS V14.01,2013-08-28 01:05:00,
2013-08-27 21:10:00,79.2,68.6,31.75,NE,36,0.0,0.0,70,0.00,,---,0.09,VWS V14.01,2013-08-28 01:10:00,
2013-08-27 21:15:00,79.1,68.1,31.75,NE,36,0.0,0.0,69,0.00,,---,0.09,VWS V14.01,2013-08-28 01:15:00,
2013-08-27 21:20:00,78.9,67.9,31.75,NE,36,0.0,0.0,69,0.00,,---,0.09,VWS V14.01,2013-08-28 01:20:00,
2013-08-27 21:25:00,78.7,67.7,31.75,NE,36,0.0,0.0,69,0.00,,---,0.09,VWS V14.01,2013-08-28 01:25:00,
2013-08-27 21:30:00,78.7,67.7,31.75,NE,36,0.0,0.0,69,0.00,,---,0.09,VWS V14.01,2013-08-28 01:30:00,
2013-08-27 21:36:00,78.6,67.6,31.75,NE,36,0.0,0.0,69,0.00,,---,0.09,VWS V14.01,2013-08-28 01:36:00,
2013-08-27 21:41:00,78.4,67.0,31.75,NE,36,0.0,0.0,68,0.00,,---,0.09,VWS V14.01,2013-08-28 01:41:00,
2013-08-27 21:46:00,78.3,66.9,31.75,NE,34,0.0,0.0,68,0.00,,---,0.09,VWS V14.01,2013-08-28 01:46:00,
2013-08-27 21:51:00,78.2,66.4,31.75,NE,35,0.0,0.0,67,0.00,,---,0.09,VWS V14.01,2013-08-28 01:51:00,
2013-08-27 21:56:00,78.0,66.2,31.75,NE,36,0.0,0.0,67,0.00,,---,0.09,VWS V14.01,2013-08-28 01:56:00,
2013-08-27 22:01:00,77.9,65.6,31.75,NE,36,0.0,0.0,66,0.00,,---,0.09,VWS V14.01,2013-08-28 02:01:00,
2013-08-27 22:06:00,77.7,65.4,31.75,NE,36,0.0,0.0,66,0.00,,---,0.09,VWS V14.01,2013-08-28 02:06:00,
2013-08-27 22:11:00,77.6,65.3,31.75,NE,36,0.0,0.0,66,0.00,,---,0.09,VWS V14.01,2013-08-28 02:11:00,
2013-08-27 22:16:00,77.5,65.3,31.75,NE,36,0.0,0.0,66,0.00,,---,0.09,VWS V14.01,2013-08-28 02:16:00,
2013-08-27 22:21:00,77.3,65.1,31.75,NE,34,0.0,0.0,66,0.00,,---,0.09,VWS V14.01,2013-08-28 02:21:00,
2013-08-27 22:26:00,77.2,64.5,31.75,NE,36,0.0,0.0,65,0.00,,---,0.09,VWS V14.01,2013-08-28 02:26:00,
2013-08-27 22:31:00,77.1,64.4,31.75,NE,36,0.0,0.0,65,0.00,,---,0.09,VWS V14.01,2013-08-28 02:31:00,
2013-08-27 22:36:00,77.0,63.9,31.75,NE,36,0.0,0.0,64,0.00,,---,0.09,VWS V14.01,2013-08-28 02:36:00,
2013-08-27 22:41:00,76.8,63.7,31.75,NE,35,0.0,0.0,64,0.00,,---,0.09,VWS V14.01,2013-08-28 02:41:00,
2013-08-27 22:46:00,76.6,63.1,31.75,NE,36,0.0,0.0,63,0.00,,---,0.09,VWS V14.01,2013-08-28 02:46:00,
2013-08-27 22:51:00,76.4,62.4,31.75,NE,36,0.0,0.0,62,0.00,,---,0.09,VWS V14.01,2013-08-28 02:51:00,
2013-08-27 22:56:00,76.2,62.2,31.75,NE,36,0.0,0.0,62,0.00,,---,0.09,VWS V14.01,2013-08-28 02:56:00,
2013-08-27 23:01:00,76.1,62.2,31.75,NE,36,0.0,0.0,62,0.00,,---,0.09,VWS V14.01,2013-08-28 03:01:00,
2013-08-27 23:06:00,76.0,62.0,31.75,NE,36,0.0,0.0,62,0.00,,---,0.09,VWS V14.01,2013-08-28 03:06:00,
2013-08-27 23:11:00,75.9,61.5,31.75,NE,36,0.0,0.0,61,0.00,,---,0.09,VWS V14.01,2013-08-28 03:11:00,
2013-08-27 23:16:00,75.8,61.4,31.75,NE,36,0.0,0.0,61,0.00,,---,0.09,VWS V14.01,2013-08-28 03:16:00,
2013-08-27 23:21:00,75.7,61.3,31.75,NE,36,0.0,0.0,61,0.00,,---,0.09,VWS V14.01,2013-08-28 03:21:00,
2013-08-27 23:26:00,75.7,60.8,31.75,NE,36,0.0,0.0,60,0.00,,---,0.09,VWS V14.01,2013-08-28 03:26:00,
2013-08-27 23:31:00,75.6,60.8,31.75,NE,36,0.0,0.0,60,0.00,,---,0.09,VWS V14.01,2013-08-28 03:31:00,
2013-08-27 23:36:00,75.6,60.8,31.75,NE,36,0.0,0.0,60,0.00,,---,0.09,VWS V14.01,2013-08-28 03:36:00,
2013-08-27 23:41:00,75.5,60.7,31.75,NE,36,0.0,0.0,60,0.00,,---,0.09,VWS V14.01,2013-08-28 03:41:00,
2013-08-27 23:46:00,75.5,60.7,31.75,NE,35,0.0,0.0,60,0.00,,---,0.09,VWS V14.01,2013-08-28 03:46:00,
2013-08-27 23:51:00,75.5,60.7,31.75,NE,34,0.0,0.0,60,0.00,,---,0.09,VWS V14.01,2013-08-28 03:51:00,
2013-08-27 23:56:00,75.5,60.7,31.75,NE,36,0.0,0.0,60,0.00,,---,0.09,VWS V14.01,2013-08-28 03:56:00,